QPF
0.00 0.00 0.01 0.01 0.01 0.01 0.01 0.01 0.01 0.02 0.02 0.02 0.02 0.02 0.03 0.02 0.01 0.02 0.02 0.03 0.03 0.03 0.05 0.06 0.09 0.09 0.10 0.12 0.10 0.07 0.06 0.06 0.06 0.08 0.10 0.09 0.07 0.07 0.08 0.09 0.07 0.06 0.06
0.00 0.00 0.01 0.01 0.01 0.01 0.01 0.01 0.01 0.02 0.02 0.02 0.02 0.03 0.02 0.02 0.02 0.02 0.02 0.03 0.03 0.03 0.04 0.04 0.06 0.08 0.10 0.11 0.08 0.07 0.07 0.07 0.07 0.09 0.11 0.09 0.07 0.06 0.07 0.08 0.07 0.08 0.08
0.00 0.01 0.01 0.01 0.01 0.01 0.01 0.01 0.01 0.01 0.02 0.03 0.02 0.02 0.02 0.02 0.02 0.03 0.05 0.06 0.04 0.03 0.04 0.04 0.06 0.07 0.09 0.11 0.10 0.08 0.08 0.08 0.09 0.08 0.09 0.08 0.07 0.06 0.08 0.10 0.10 0.08 0.08
0.01 0.01 0.01 0.01 0.01 0.01 0.01 0.01 0.01 0.02 0.03 0.04 0.03 0.02 0.02 0.03 0.04 0.08 0.11 0.08 0.05 0.03 0.04 0.05 0.06 0.06 0.07 0.10 0.11 0.09 0.08 0.08 0.08 0.08 0.06 0.06 0.05 0.05 0.07 0.11 0.14 0.10 0.09
0.02 0.02 0.01 0.02 0.01 0.01 0.01 0.01 0.02 0.03 0.04 0.04 0.04 0.03 0.02 0.03 0.06 0.11 0.13 0.08 0.05 0.04 0.05 0.06 0.07 0.08 0.07 0.09 0.09 0.09 0.09 0.08 0.08 0.07 0.04 0.05 0.05 0.06 0.07 0.11 0.14 0.15 0.11
0.03 0.02 0.01 0.01 0.01 0.01 0.01 0.01 0.03 0.03 0.04 0.05 0.05 0.05 0.02 0.03 0.03 0.07 0.09 0.07 0.06 0.05 0.06 0.07 0.07 0.07 0.07 0.07 0.07 0.08 0.09 0.09 0.07 0.07 0.06 0.06 0.05 0.06 0.06 0.07 0.10 0.16 0.14
0.03 0.02 0.01 0.01 0.01 0.01 0.01 0.01 0.02 0.02 0.03 0.04 0.05 0.07 0.04 0.03 0.03 0.03 0.04 0.05 0.05 0.05 0.07 0.08 0.07 0.07 0.06 0.06 0.06 0.07 0.08 0.11 0.09 0.07 0.06 0.06 0.06 0.07 0.07 0.07 0.07 0.10 0.15
0.01 0.02 0.02 0.02 0.02 0.01 0.01 0.01 0.01 0.02 0.03 0.04 0.05 0.06 0.06 0.05 0.06 0.05 0.03 0.03 0.04 0.04 0.06 0.09 0.10 0.09 0.08 0.07 0.08 0.09 0.09 0.12 0.11 0.06 0.06 0.06 0.07 0.08 0.08 0.06 0.05 0.04 0.09
0.01 0.01 0.02 0.02 0.02 0.01 0.01 0.01 0.01 0.02 0.02 0.03 0.04 0.05 0.06 0.06 0.05 0.05 0.04 0.03 0.04 0.05 0.06 0.08 0.09 0.10 0.08 0.07 0.07 0.10 0.13 0.15 0.14 0.06 0.06 0.07 0.07 0.09 0.08 0.08 0.07 0.05 0.06
0.01 0.01 0.01 0.01 0.02 0.02 0.01 0.02 0.03 0.03 0.02 0.02 0.03 0.04 0.03 0.04 0.05 0.04 0.04 0.04 0.04 0.05 0.08 0.10 0.10 0.09 0.09 0.08 0.08 0.12 0.18 0.20 0.17 0.09 0.08 0.08 0.09 0.08 0.09 0.08 0.07 0.07 0.06
0.01 0.01 0.02 0.02 0.02 0.02 0.01 0.01 0.02 0.03 0.03 0.03 0.04 0.05 0.05 0.04 0.05 0.04 0.05 0.07 0.07 0.08 0.09 0.10 0.10 0.07 0.08 0.09 0.10 0.15 0.19 0.21 0.17 0.12 0.10 0.10 0.10 0.10 0.10 0.09 0.08 0.08 0.07
0.01 0.01 0.01 0.01 0.02 0.01 0.00 0.01 0.02 0.02 0.03 0.04 0.04 0.05 0.06 0.06 0.05 0.03 0.04 0.05 0.06 0.07 0.07 0.08 0.09 0.07 0.07 0.06 0.08 0.11 0.12 0.17 0.15 0.10 0.11 0.09 0.09 0.12 0.12 0.10 0.09 0.08 0.07
0.00 0.00 0.01 0.01 0.03 0.02 0.01 0.01 0.02 0.02 0.03 0.04 0.05 0.05 0.05 0.04 0.04 0.04 0.05 0.05 0.05 0.05 0.05 0.06 0.09 0.08 0.06 0.05 0.07 0.09 0.10 0.14 0.13 0.09 0.10 0.09 0.11 0.11 0.11 0.11 0.10 0.10 0.08
0.00 0.00 0.00 0.01 0.02 0.01 0.01 0.02 0.02 0.02 0.02 0.03 0.04 0.05 0.06 0.05 0.03 0.03 0.05 0.06 0.06 0.05 0.06 0.07 0.08 0.08 0.06 0.05 0.06 0.07 0.07 0.10 0.11 0.10 0.11 0.09 0.10 0.10 0.10 0.12 0.14 0.15 0.14
0.00 0.01 0.01 0.02 0.03 0.01 0.02 0.02 0.03 0.03 0.03 0.03 0.03 0.05 0.06 0.06 0.04 0.03 0.05 0.07 0.07 0.05 0.06 0.08 0.08 0.07 0.05 0.05 0.06 0.06 0.06 0.08 0.10 0.09 0.09 0.07 0.06 0.06 0.08 0.09 0.12 0.16 0.16
0.00 0.01 0.01 0.02 0.02 0.02 0.02 0.03 0.04 0.03 0.03 0.04 0.04 0.05 0.06 0.05 0.06 0.06 0.06 0.08 0.08 0.06 0.06 0.07 0.07 0.06 0.06 0.05 0.06 0.06 0.06 0.09 0.08 0.09 0.08 0.06 0.06 0.06 0.06 0.07 0.09 0.12 0.15
0.00 0.01 0.01 0.02 0.02 0.02 0.03 0.03 0.04 0.03 0.04 0.06 0.05 0.06 0.06 0.05 0.05 0.06 0.07 0.07 0.08 0.07 0.07 0.08 0.07 0.05 0.06 0.06 0.07 0.07 0.07 0.07 0.06 0.06 0.06 0.05 0.05 0.08 0.08 0.06 0.08 0.10 0.12
0.00 0.01 0.01 0.02 0.02 0.02 0.02 0.03 0.03 0.04 0.04 0.04 0.06 0.06 0.05 0.05 0.05 0.06 0.08 0.07 0.07 0.08 0.09 0.08 0.08 0.08 0.09 0.09 0.08 0.07 0.08 0.06 0.04 0.04 0.04 0.04 0.04 0.05 0.05 0.05 0.07 0.07 0.09
0.01 0.01 0.01 0.01 0.02 0.02 0.03 0.03 0.04 0.05 0.06 0.06 0.07 0.08 0.07 0.06 0.05 0.06 0.07 0.09 0.07 0.08 0.09 0.09 0.09 0.08 0.10 0.11 0.10 0.09 0.08 0.07 0.05 0.05 0.05 0.04 0.03 0.04 0.05 0.04 0.05 0.05 0.08
0.00 0.01 0.01 0.01 0.01 0.03 0.04 0.05 0.05 0.05 0.05 0.06 0.07 0.06 0.06 0.05 0.04 0.06 0.08 0.08 0.07 0.09 0.09 0.09 0.11 0.09 0.11 0.12 0.09 0.08 0.07 0.07 0.06 0.06 0.05 0.04 0.03 0.02 0.03 0.03 0.05 0.04 0.06
0.01 0.01 0.01 0.01 0.02 0.03 0.03 0.04 0.05 0.05 0.04 0.05 0.06 0.05 0.06 0.05 0.04 0.05 0.06 0.07 0.06 0.08 0.10 0.09 0.09 0.08 0.09 0.08 0.09 0.07 0.05 0.04 0.05 0.05 0.04 0.04 0.02 0.03 0.03 0.03 0.04 0.04 0.04
0.01 0.01 0.01 0.02 0.01 0.02 0.02 0.03 0.03 0.04 0.04 0.05 0.05 0.04 0.04 0.05 0.06 0.05 0.05 0.06 0.06 0.07 0.08 0.08 0.07 0.07 0.06 0.06 0.07 0.07 0.05 0.04 0.04 0.03 0.04 0.03 0.02 0.03 0.02 0.02 0.03 0.03 0.04
0.01 0.01 0.01 0.02 0.01 0.02 0.02 0.03 0.03 0.03 0.03 0.04 0.04 0.04 0.04 0.04 0.07 0.07 0.05 0.06 0.05 0.05 0.06 0.06 0.05 0.06 0.04 0.05 0.05 0.05 0.06 0.04 0.04 0.04 0.03 0.02 0.02 0.02 0.02 0.02 0.02 0.02 0.03
0.01 0.01 0.01 0.01 0.01 0.02 0.03 0.03 0.04 0.04 0.05 0.04 0.04 0.04 0.05 0.06 0.08 0.09 0.06 0.05 0.04 0.04 0.05 0.04 0.04 0.06 0.06 0.05 0.04 0.04 0.04 0.04 0.05 0.05 0.03 0.02 0.02 0.03 0.03 0.02 0.02 0.03 0.05
0.01 0.01 0.01 0.01 0.01 0.02 0.03 0.04 0.04 0.05 0.05 0.05 0.06 0.06 0.05 0.05 0.07 0.08 0.07 0.05 0.05 0.05 0.05 0.04 0.03 0.04 0.04 0.05 0.05 0.04 0.04 0.04 0.04 0.06 0.06 0.05 0.03 0.03 0.03 0.03 0.03 0.03 0.03
0.01 0.01 0.01 0.01 0.02 0.03 0.04 0.04 0.04 0.04 0.04 0.04 0.04 0.05 0.04 0.04 0.04 0.04 0.06 0.04 0.05 0.05 0.05 0.05 0.04 0.03 0.04 0.05 0.05 0.05 0.05 0.05 0.05 0.06 0.08 0.07 0.06 0.03 0.03 0.04 0.03 0.03 0.02
MSLP
1008.28 1008.32 1008.59 1009.04 1009.58 1010.12 1010.59 1010.94 1011.18 1011.35 1011.51 1011.73 1012.04 1012.45 1012.95 1013.48 1013.98 1014.41 1014.74 1014.97 1015.13 1015.26 1015.41 1015.60 1015.83 1016.08 1016.33 1016.54 1016.67 1016.72 1016.71 1016.68 1016.66 1016.69 1016.79 1016.96 1017.17 1017.39 1017.60 1017.75 1017.85 1017.91 1017.94
1008.37 1008.52 1008.86 1009.34 1009.88 1010.40 1010.84 1011.16 1011.37 1011.53 1011.69 1011.92 1012.26 1012.69 1013.21 1013.74 1014.24 1014.65 1014.95 1015.15 1015.29 1015.42 1015.58 1015.79 1016.05 1016.34 1016.61 1016.82 1016.95 1016.98 1016.95 1016.88 1016.84 1016.86 1016.97 1017.16 1017.41 1017.68 1017.91 1018.10 1018.21 1018.25 1018.26
1008.40 1008.65 1009.05 1009.56 1010.11 1010.63 1011.05 1011.37 1011.59 1011.76 1011.94 1012.19 1012.53 1012.96 1013.45 1013.95 1014.40 1014.76 1015.02 1015.20 1015.33 1015.47 1015.66 1015.91 1016.22 1016.54 1016.84 1017.05 1017.16 1017.16 1017.09 1016.98 1016.91 1016.91 1017.02 1017.24 1017.52 1017.83 1018.11 1018.33 1018.47 1018.52 1018.53
1008.38 1008.71 1009.16 1009.70 1010.26 1010.79 1011.23 1011.56 1011.81 1012.02 1012.23 1012.49 1012.83 1013.24 1013.68 1014.13 1014.52 1014.82 1015.04 1015.19 1015.32 1015.49 1015.72 1016.02 1016.37 1016.73 1017.04 1017.25 1017.33 1017.29 1017.17 1017.01 1016.90 1016.88 1017.00 1017.23 1017.54 1017.89 1018.23 1018.49 1018.66 1018.74 1018.76
1008.36 1008.73 1009.21 1009.77 1010.34 1010.88 1011.35 1011.72 1012.01 1012.26 1012.51 1012.79 1013.13 1013.51 1013.92 1014.30 1014.63 1014.88 1015.07 1015.21 1015.36 1015.55 1015.82 1016.16 1016.55 1016.93 1017.24 1017.43 1017.48 1017.40 1017.22 1017.03 1016.88 1016.85 1016.96 1017.20 1017.54 1017.93 1018.30 1018.60 1018.80 1018.91 1018.95
1008.36 1008.75 1009.24 1009.80 1010.38 1010.93 1011.42 1011.82 1012.16 1012.45 1012.74 1013.04 1013.38 1013.76 1014.13 1014.48 1014.77 1014.99 1015.16 1015.31 1015.48 1015.71 1016.01 1016.38 1016.79 1017.17 1017.46 1017.62 1017.63 1017.51 1017.29 1017.07 1016.90 1016.86 1016.97 1017.23 1017.59 1018.00 1018.39 1018.71 1018.93 1019.05 1019.10
1008.42 1008.80 1009.27 1009.82 1010.39 1010.94 1011.44 1011.87 1012.24 1012.57 1012.88 1013.21 1013.56 1013.94 1014.30 1014.64 1014.93 1015.16 1015.34 1015.51 1015.71 1015.96 1016.28 1016.66 1017.06 1017.42 1017.68 1017.81 1017.78 1017.62 1017.39 1017.15 1016.99 1016.96 1017.08 1017.35 1017.72 1018.13 1018.52 1018.84 1019.06 1019.17 1019.21
1008.54 1008.89 1009.34 1009.86 1010.40 1010.94 1011.43 1011.86 1012.24 1012.59 1012.93 1013.28 1013.65 1014.04 1014.42 1014.78 1015.09 1015.35 1015.56 1015.77 1016.00 1016.27 1016.60 1016.96 1017.33 1017.65 1017.87 1017.95 1017.90 1017.73 1017.50 1017.28 1017.14 1017.14 1017.28 1017.57 1017.94 1018.35 1018.72 1019.01 1019.20 1019.28 1019.29
1008.71 1009.04 1009.45 1009.93 1010.44 1010.94 1011.41 1011.82 1012.20 1012.54 1012.89 1013.25 1013.64 1014.06 1014.47 1014.87 1015.22 1015.52 1015.79 1016.03 1016.28 1016.56 1016.88 1017.21 1017.54 1017.81 1017.98 1018.03 1017.95 1017.79 1017.58 1017.41 1017.32 1017.36 1017.54 1017.85 1018.23 1018.62 1018.97 1019.22 1019.36 1019.40 1019.36
1008.89 1009.20 1009.59 1010.04 1010.51 1010.97 1011.39 1011.77 1012.12 1012.45 1012.79 1013.16 1013.57 1014.01 1014.46 1014.90 1015.30 1015.66 1015.97 1016.24 1016.51 1016.79 1017.08 1017.37 1017.64 1017.86 1017.98 1018.01 1017.93 1017.79 1017.63 1017.50 1017.48 1017.58 1017.81 1018.15 1018.53 1018.92 1019.24 1019.45 1019.54 1019.53 1019.44
1009.06 1009.37 1009.75 1010.17 1010.60 1011.02 1011.40 1011.74 1012.05 1012.36 1012.68 1013.05 1013.46 1013.92 1014.41 1014.88 1015.33 1015.73 1016.07 1016.37 1016.64 1016.90 1017.16 1017.40 1017.63 1017.80 1017.89 1017.90 1017.84 1017.73 1017.62 1017.56 1017.59 1017.76 1018.03 1018.40 1018.80 1019.19 1019.49 1019.68 1019.74 1019.69 1019.56
1009.17 1009.50 1009.88 1010.29 1010.70 1011.08 1011.42 1011.73 1012.00 1012.28 1012.59 1012.95 1013.36 1013.84 1014.34 1014.84 1015.31 1015.73 1016.09 1016.39 1016.66 1016.90 1017.13 1017.34 1017.53 1017.67 1017.75 1017.76 1017.72 1017.64 1017.58 1017.58 1017.67 1017.87 1018.19 1018.59 1019.01 1019.40 1019.71 1019.89 1019.95 1019.88 1019.74
1009.21 1009.58 1009.98 1010.39 1010.79 1011.15 1011.46 1011.73 1011.99 1012.24 1012.53 1012.88 1013.30 1013.77 1014.28 1014.79 1015.27 1015.69 1016.05 1016.35 1016.60 1016.82 1017.03 1017.22 1017.39 1017.53 1017.61 1017.64 1017.63 1017.59 1017.56 1017.59 1017.72 1017.95 1018.29 1018.70 1019.13 1019.54 1019.86 1020.07 1020.14 1020.10 1019.96
1009.16 1009.57 1010.00 1010.43 1010.83 1011.19 1011.49 1011.75 1011.99 1012.23 1012.51 1012.86 1013.27 1013.74 1014.24 1014.75 1015.22 1015.63 1015.98 1016.27 1016.51 1016.72 1016.92 1017.11 1017.29 1017.44 1017.55 1017.61 1017.62 1017.61 1017.61 1017.66 1017.78 1018.02 1018.35 1018.75 1019.19 1019.61 1019.96 1020.20 1020.31 1020.30 1020.21
1009.00 1009.47 1009.95 1010.40 1010.82 1011.18 1011.48 1011.74 1011.98 1012.23 1012.51 1012.86 1013.27 1013.73 1014.23 1014.72 1015.18 1015.58 1015.91 1016.19 1016.43 1016.64 1016.85 1017.06 1017.27 1017.46 1017.60 1017.70 1017.75 1017.76 1017.77 1017.80 1017.91 1018.11 1018.41 1018.78 1019.20 1019.62 1019.99 1020.26 1020.43 1020.48 1020.44
1008.75 1009.27 1009.79 1010.28 1010.72 1011.10 1011.42 1011.69 1011.94 1012.20 1012.50 1012.85 1013.26 1013.72 1014.21 1014.69 1015.14 1015.53 1015.86 1016.14 1016.38 1016.61 1016.85 1017.10 1017.35 1017.58 1017.78 1017.92 1018.00 1018.03 1018.04 1018.05 1018.11 1018.26 1018.50 1018.82 1019.20 1019.60 1019.96 1020.26 1020.47 1020.58 1020.60
1008.40 1008.98 1009.54 1010.07 1010.54 1010.95 1011.29 1011.59 1011.86 1012.14 1012.44 1012.80 1013.22 1013.68 1014.16 1014.64 1015.08 1015.47 1015.81 1016.10 1016.37 1016.63 1016.91 1017.20 1017.50 1017.79 1018.04 1018.23 1018.34 1018.39 1018.39 1018.37 1018.38 1018.46 1018.62 1018.87 1019.19 1019.55 1019.90 1020.20 1020.44 1020.58 1020.65
1007.96 1008.59 1009.20 1009.77 1010.29 1010.73 1011.11 1011.44 1011.73 1012.03 1012.34 1012.70 1013.12 1013.57 1014.05 1014.53 1014.98 1015.39 1015.75 1016.07 1016.37 1016.67 1016.99 1017.33 1017.68 1018.02 1018.31 1018.55 1018.69 1018.75 1018.75 1018.71 1018.67 1018.68 1018.77 1018.95 1019.19 1019.49 1019.80 1020.09 1020.32 1020.49 1020.60
1007.43 1008.11 1008.77 1009.40 1009.96 1010.46 1010.88 1011.25 1011.57 1011.87 1012.19 1012.54 1012.95 1013.39 1013.87 1014.35 1014.82 1015.26 1015.65 1016.02 1016.36 1016.70 1017.06 1017.44 1017.82 1018.20 1018.53 1018.80 1018.97 1019.05 1019.05 1019.00 1018.94 1018.90 1018.92 1019.02 1019.19 1019.42 1019.67 1019.93 1020.15 1020.33 1020.45
1006.82 1007.54 1008.26 1008.95 1009.58 1010.14 1010.62 1011.03 1011.37 1011.69 1012.00 1012.34 1012.72 1013.15 1013.62 1014.11 1014.60 1015.07 1015.51 1015.93 1016.32 1016.70 1017.09 1017.49 1017.90 1018.29 1018.64 1018.92 1019.12 1019.23 1019.24 1019.20 1019.12 1019.06 1019.03 1019.07 1019.17 1019.34 1019.53 1019.75 1019.95 1020.12 1020.26
1006.12 1006.88 1007.65 1008.41 1009.12 1009.76 1010.32 1010.78 1011.16 1011.49 1011.79 1012.11 1012.46 1012.86 1013.31 1013.80 1014.32 1014.83 1015.32 1015.79 1016.24 1016.66 1017.07 1017.48 1017.88 1018.27 1018.62 1018.91 1019.12 1019.24 1019.29 1019.27 1019.20 1019.13 1019.08 1019.08 1019.14 1019.24 1019.39 1019.57 1019.74 1019.91 1020.06
1005.34 1006.12 1006.95 1007.78 1008.58 1009.31 1009.96 1010.49 1010.92 1011.27 1011.57 1011.85 1012.17 1012.54 1012.97 1013.46 1014.00 1014.55 1015.10 1015.63 1016.12 1016.58 1017.01 1017.41 1017.80 1018.16 1018.48 1018.76 1018.98 1019.12 1019.20 1019.21 1019.17 1019.12 1019.07 1019.05 1019.08 1019.14 1019.26 1019.40 1019.56 1019.73 1019.90
1004.51 1005.28 1006.13 1007.03 1007.92 1008.75 1009.50 1010.12 1010.62 1011.01 1011.32 1011.59 1011.87 1012.21 1012.62 1013.11 1013.66 1014.25 1014.85 1015.43 1015.98 1016.47 1016.91 1017.31 1017.67 1018.00 1018.29 1018.54 1018.75 1018.91 1019.01 1019.06 1019.06 1019.04 1019.00 1018.99 1019.00 1019.04 1019.13 1019.26 1019.42 1019.60 1019.79
1003.64 1004.37 1005.21 1006.15 1007.11 1008.05 1008.91 1009.65 1010.23 1010.68 1011.02 1011.29 1011.56 1011.87 1012.26 1012.74 1013.31 1013.94 1014.59 1015.23 1015.82 1016.35 1016.81 1017.20 1017.53 1017.82 1018.07 1018.30 1018.49 1018.66 1018.78 1018.86 1018.91 1018.92 1018.91 1018.91 1018.91 1018.95 1019.03 1019.15 1019.31 1019.50 1019.72
1002.78 1003.41 1004.21 1005.15 1006.17 1007.20 1008.17 1009.02 1009.72 1010.25 1010.64 1010.94 1011.22 1011.52 1011.90 1012.38 1012.96 1013.62 1014.31 1015.00 1015.64 1016.21 1016.69 1017.08 1017.40 1017.66 1017.88 1018.08 1018.26 1018.43 1018.57 1018.68 1018.76 1018.80 1018.82 1018.83 1018.84 1018.88 1018.94 1019.05 1019.22 1019.42 1019.66
1001.98 1002.47 1003.17 1004.08 1005.12 1006.21 1007.28 1008.25 1009.07 1009.70 1010.18 1010.53 1010.84 1011.15 1011.53 1012.01 1012.60 1013.28 1014.01 1014.75 1015.43 1016.04 1016.55 1016.96 1017.27 1017.52 1017.72 1017.90 1018.08 1018.24 1018.40 1018.54 1018.65 1018.72 1018.76 1018.79 1018.80 1018.83 1018.88 1018.98 1019.14 1019.34 1019.57
Thickness
5806 5802 5791 5788 5786 5784 5782 5780 5779 5777 5776 5775 5775 5774 5774 5774 5774 5773 5773 5773 5773 5774 5774 5773 5773 5772 5771 5770 5769 5768 5767 5766 5765 5765 5764 5764 5763 5761 5761 5760 5759 5759 5756
5807 5800 5790 5786 5784 5782 5780 5779 5777 5776 5775 5773 5773 5772 5772 5772 5771 5771 5771 5771 5771 5772 5772 5771 5771 5770 5769 5768 5767 5766 5765 5764 5763 5763 5763 5762 5761 5760 5759 5758 5758 5757 5754
5805 5798 5790 5785 5782 5780 5779 5777 5776 5774 5773 5772 5771 5770 5770 5770 5769 5769 5769 5769 5770 5770 5770 5769 5769 5768 5767 5766 5765 5764 5763 5762 5762 5762 5762 5763 5761 5758 5757 5756 5755 5754 5752
5802 5797 5791 5784 5781 5779 5777 5775 5774 5772 5771 5770 5769 5768 5768 5768 5768 5768 5768 5768 5768 5768 5767 5767 5767 5766 5765 5764 5763 5762 5761 5760 5760 5761 5762 5762 5760 5756 5755 5754 5752 5751 5750
5800 5795 5788 5782 5779 5777 5775 5774 5772 5771 5769 5768 5767 5766 5766 5766 5766 5766 5766 5767 5766 5765 5765 5765 5764 5764 5763 5762 5761 5761 5760 5759 5759 5760 5761 5760 5758 5754 5753 5752 5750 5749 5748
5797 5794 5787 5780 5778 5775 5774 5772 5771 5769 5768 5766 5765 5764 5764 5763 5763 5763 5764 5764 5763 5763 5763 5763 5762 5761 5760 5760 5759 5758 5758 5758 5759 5761 5759 5757 5755 5752 5751 5750 5748 5747 5746
5797 5793 5786 5779 5776 5774 5772 5770 5769 5767 5766 5765 5763 5762 5761 5761 5761 5761 5761 5761 5761 5761 5761 5760 5760 5759 5758 5758 5757 5756 5756 5757 5759 5760 5757 5755 5752 5749 5748 5747 5746 5745 5743
5795 5792 5784 5777 5775 5772 5770 5769 5767 5765 5764 5762 5761 5760 5760 5759 5759 5759 5759 5759 5759 5759 5758 5758 5757 5757 5756 5755 5754 5754 5754 5754 5757 5757 5755 5753 5749 5747 5745 5745 5744 5743 5741
5794 5790 5785 5780 5775 5771 5769 5767 5765 5763 5762 5760 5759 5758 5758 5757 5757 5757 5757 5757 5757 5757 5756 5755 5755 5754 5753 5753 5752 5752 5752 5752 5755 5755 5754 5751 5747 5745 5743 5742 5742 5740 5740
5791 5788 5785 5782 5778 5775 5771 5766 5763 5762 5760 5759 5757 5757 5756 5756 5756 5756 5756 5756 5755 5755 5754 5753 5752 5752 5751 5750 5750 5749 5750 5751 5755 5753 5752 5749 5745 5743 5741 5741 5739 5738 5737
5787 5786 5784 5782 5778 5776 5774 5768 5764 5761 5759 5758 5757 5756 5755 5757 5757 5756 5755 5754 5753 5753 5752 5751 5750 5749 5749 5748 5748 5748 5749 5753 5754 5752 5749 5746 5743 5741 5740 5739 5737 5736 5735
5783 5783 5783 5780 5778 5776 5773 5769 5767 5765 5762 5760 5758 5756 5756 5755 5755 5755 5752 5751 5751 5750 5750 5749 5749 5748 5749 5750 5749 5748 5750 5751 5752 5750 5746 5743 5741 5739 5738 5737 5736 5734 5733
5785 5782 5781 5779 5776 5774 5772 5768 5766 5764 5761 5760 5757 5755 5754 5754 5753 5753 5753 5751 5750 5750 5750 5749 5749 5749 5749 5749 5749 5749 5749 5749 5749 5748 5744 5740 5739 5737 5736 5735 5734 5733 5731
5784 5781 5780 5777 5774 5771 5769 5767 5764 5762 5760 5759 5756 5753 5753 5752 5751 5751 5751 5751 5750 5750 5749 5749 5748 5747 5746 5746 5747 5747 5747 5746 5746 5744 5741 5738 5736 5735 5734 5733 5732 5731 5730
5783 5780 5778 5775 5771 5768 5765 5763 5761 5759 5759 5756 5753 5751 5750 5750 5750 5750 5749 5747 5748 5748 5747 5745 5745 5744 5743 5744 5744 5744 5744 5743 5743 5742 5739 5735 5734 5733 5732 5732 5731 5729 5728
5782 5779 5777 5773 5770 5766 5763 5760 5758 5757 5754 5753 5751 5749 5747 5747 5746 5746 5745 5744 5745 5744 5744 5743 5742 5741 5741 5741 5741 5740 5740 5740 5739 5738 5738 5735 5732 5731 5730 5729 5728 5727 5726
5782 5779 5775 5772 5769 5764 5762 5759 5758 5756 5753 5750 5748 5746 5744 5743 5743 5743 5742 5742 5742 5741 5740 5739 5739 5739 5739 5739 5738 5738 5738 5737 5737 5735 5735 5735 5733 5731 5729 5727 5726 5725 5724
5783 5778 5774 5773 5768 5763 5760 5757 5756 5754 5751 5748 5746 5744 5742 5741 5740 5740 5740 5740 5739 5738 5738 5737 5737 5737 5736 5735 5735 5735 5735 5734 5734 5733 5733 5733 5732 5732 5729 5726 5725 5723 5722
5782 5778 5773 5771 5767 5763 5759 5755 5753 5750 5748 5746 5744 5742 5740 5739 5738 5738 5737 5736 5736 5737 5736 5736 5735 5734 5732 5731 5732 5731 5733 5732 5731 5731 5731 5731 5730 5729 5728 5725 5723 5721 5720
5782 5777 5773 5769 5765 5761 5757 5754 5751 5748 5746 5744 5742 5740 5738 5737 5736 5735 5735 5733 5734 5734 5733 5732 5730 5730 5729 5728 5730 5729 5730 5729 5728 5728 5729 5729 5727 5727 5726 5725 5723 5721 5718
5779 5775 5771 5767 5763 5758 5755 5752 5748 5745 5743 5742 5741 5738 5736 5735 5734 5733 5734 5731 5731 5731 5729 5729 5727 5726 5725 5726 5724 5723 5725 5726 5725 5724 5725 5725 5725 5724 5723 5722 5722 5721 5719
5777 5773 5769 5765 5762 5758 5754 5750 5747 5743 5741 5740 5739 5736 5734 5733 5732 5732 5730 5730 5728 5727 5725 5724 5723 5723 5723 5723 5721 5719 5717 5718 5719 5722 5721 5721 5721 5722 5721 5720 5719 5718 5718
5775 5772 5769 5763 5759 5756 5753 5749 5745 5741 5738 5737 5735 5734 5733 5731 5730 5729 5728 5727 5726 5725 5723 5721 5721 5720 5719 5720 5721 5719 5714 5714 5717 5718 5717 5718 5717 5718 5718 5718 5716 5715 5714
5774 5771 5766 5761 5757 5753 5750 5746 5742 5738 5735 5733 5733 5732 5731 5730 5728 5727 5725 5724 5723 5723 5721 5720 5720 5718 5717 5717 5717 5718 5718 5717 5713 5711 5713 5715 5714 5713 5714 5715 5714 5712 5711
5772 5768 5763 5758 5754 5750 5747 5743 5739 5737 5735 5734 5732 5730 5729 5728 5726 5725 5723 5722 5721 5721 5720 5718 5717 5716 5716 5715 5714 5715 5714 5713 5713 5709 5707 5709 5710 5712 5711 5711 5710 5710 5709
5768 5764 5759 5754 5750 5747 5744 5741 5737 5734 5732 5730 5728 5727 5726 5726 5725 5723 5722 5721 5720 5719 5717 5716 5715 5715 5714 5713 5713 5713 5712 5710 5710 5709 5706 5705 5705 5708 5708 5708 5708 5707 5706